FW9206 Weather Reports


Display with metric or nautical units.
time (UTC)temp
F
wind
direction
speed
MPH
gust
MPH
rain 1hr
in
rain 24hr
in
rain mn
in
humidity
%
barometer
mb
20260504213603 71 255 9.0 23.0 0.00 0.00 0.00 31 1007.7
20260504212704 71 240 10.0 26.0 0.00 0.00 0.00 30 1007.6
20260504211824 71 263 11.0 24.0 0.00 0.00 0.00 30 1007.7
20260504210924 71 250 11.0 23.0 0.00 0.00 0.00 30 1007.7
20260504210003 71 253 11.0 22.0 0.00 0.00 0.00 30 1007.7
20260504205403 71 250 12.0 27.0 0.00 0.00 0.00 29 1007.7
20260504204526 70 240 12.0 35.0 0.00 0.00 0.00 29 1007.7
20260504203603 70 247 9.0 19.0 0.00 0.00 0.00 30 1007.7
20260504202703 71 246 11.0 24.0 0.00 0.00 0.00 29 1007.6
20260504201824 71 257 9.0 22.0 0.00 0.00 0.00 30 1007.7
20260504200903 70 241 10.0 22.0 0.00 0.00 0.00 29 1007.6
20260504200003 70 238 11.0 26.0 0.00 0.00 0.00 29 1007.7
20260504195404 70 231 9.0 17.0 0.00 0.00 0.00 30 1007.6
20260504194503 70 238 12.0 25.0 0.00 0.00 0.00 29 1007.9
20260504193603 70 239 17.0 31.0 0.00 0.00 0.00 29 1007.8
20260504192724 70 237 13.0 27.0 0.00 0.00 0.00 29 1007.9
20260504191804 70 241 13.0 29.0 0.00 0.00 0.00 29 1007.9
20260504190903 70 240 12.0 29.0 0.00 0.00 0.00 28 1008.0
20260504190024 69 242 15.0 30.0 0.00 0.00 0.00 28 1008.0
20260504185424 69 237 17.0 35.0 0.00 0.00 0.00 28 1008.0
20260504184524 70 241 10.0 26.0 0.00 0.00 0.00 28 1008.1
20260504183603 70 239 9.0 26.0 0.00 0.00 0.00 29 1008.1
20260504182703 69 243 13.0 29.0 0.00 0.00 0.00 30 1008.2
20260504181803 69 230 13.0 29.0 0.00 0.00 0.00 29 1008.4
20260504180903 68 240 14.0 26.0 0.00 0.00 0.00 30 1008.4
20260504180003 68 244 15.0 26.0 0.00 0.00 0.00 30 1008.5
20260504175404 67 234 15.0 29.0 0.00 0.00 0.00 31 1008.4
20260504174504 67 232 14.0 32.0 0.00 0.00 0.00 31 1008.4
20260504173603 68 249 9.0 25.0 0.00 0.00 0.00 32 1008.5
20260504172703 67 246 14.0 28.0 0.00 0.00 0.00 30 1008.7
20260504171803 67 239 15.0 33.0 0.00 0.00 0.00 31 1008.9
20260504170903 66 232 14.0 27.0 0.00 0.00 0.00 31 1008.8
20260504150903 63 226 11.0 22.0 0.00 0.00 0.00 38 1009.8
20260504140903 60 239 9.0 19.0 0.00 0.00 0.00 45 1010.5
20260504081803 45 215 6.0 10.0 0.00 0.02 0.00 57 1011.5
20260504080924 46 222 5.0 8.0 0.00 0.02 0.00 56 1011.5
20260504050024 42 227 6.0 9.0 0.00 0.02 0.00 59 1011.4
20260504045403 42 228 6.0 9.0 0.00 0.02 0.00 59 1011.5
20260504044504 42 229 5.0 9.0 0.00 0.02 0.00 59 1011.5
20260504043603 42 221 5.0 9.0 0.00 0.02 0.00 60 1011.4
20260504042704 42 211 4.0 7.0 0.00 0.02 0.00 58 1011.5
20260504041803 44 221 3.0 6.0 0.00 0.02 0.00 56 1011.4
20260504040903 44 232 5.0 8.0 0.00 0.02 0.00 54 1011.3
20260504040003 44 237 6.0 8.0 0.00 0.02 0.00 54 1011.3
20260504035403 44 238 6.0 8.0 0.00 0.02 0.02 54 1011.2
20260504034525 44 240 5.0 8.0 0.00 0.02 0.02 55 1011.2
20260504033603 44 241 5.0 8.0 0.00 0.02 0.02 55 1011.1
20260504032703 44 234 5.0 7.0 0.00 0.02 0.02 55 1011.1
20260504031804 44 229 5.0 6.0 0.00 0.02 0.02 55 1011.1
20260504030905 44 232 4.0 6.0 0.00 0.02 0.02 54 1011.0
20260504030024 44 234 4.0 7.0 0.00 0.02 0.02 54 1011.1
20260504025403 45 236 4.0 8.0 0.00 0.02 0.02 53 1011.1
20260504024503 45 245 5.0 8.0 0.00 0.02 0.02 52 1011.0
20260504023603 45 244 6.0 10.0 0.00 0.02 0.02 52 1011.0
20260504022703 45 240 5.0 9.0 0.00 0.02 0.02 53 1011.0
20260504021804 45 239 5.0 8.0 0.00 0.02 0.02 53 1011.0
20260504020903 45 239 4.0 7.0 0.00 0.02 0.02 52 1010.8
20260504015403 46 249 4.0 7.0 0.00 0.02 0.02 51 1010.8
20260504014503 46 249 5.0 9.0 0.00 0.02 0.02 50 1010.7
20260504013604 47 244 4.0 7.0 0.00 0.02 0.02 50 1010.6
20260504012704 47 242 4.0 8.0 0.00 0.02 0.02 49 1010.6
20260504011803 47 245 3.0 5.0 0.00 0.02 0.02 49 1010.6
20260504010903 47 253 3.0 5.0 0.00 0.02 0.02 49 1010.5
20260504010004 47 274 3.0 5.0 0.00 0.02 0.02 49 1010.4
20260504005403 47 290 2.0 4.0 0.00 0.02 0.02 49 1010.3
20260504004503 47 292 3.0 6.0 0.00 0.02 0.02 48 1010.2
20260504003603 48 287 3.0 6.0 0.00 0.02 0.02 48 1010.0
20260504002704 48 285 3.0 6.0 0.00 0.02 0.02 47 1010.0
20260504001803 48 291 3.0 7.0 0.00 0.02 0.02 47 1009.9
20260504000904 48 283 3.0 7.0 0.00 0.02 0.02 46 1009.9
20260504000024 49 291 3.0 9.0 0.00 0.02 0.02 45 1009.7
20260503235403 49 294 4.0 9.0 0.00 0.02 0.02 45 1009.6
20260503234503 49 285 4.0 10.0 0.00 0.02 0.02 44 1009.5
20260503233603 50 296 6.0 12.0 0.00 0.02 0.02 43 1009.4
20260503232703 50 300 6.0 15.0 0.00 0.02 0.02 43 1009.3
20260503231804 50 296 7.0 19.0 0.00 0.02 0.02 42 1009.2
20260503230904 51 291 7.0 17.0 0.00 0.02 0.02 41 1009.0
20260503230025 50 303 7.0 19.0 0.00 0.02 0.02 42 1008.9
20260503225403 50 307 8.0 19.0 0.00 0.02 0.02 42 1009.1
20260503224504 50 303 9.0 23.0 0.00 0.02 0.02 40 1008.9
20260503223603 51 310 9.0 21.0 0.00 0.02 0.02 40 1008.7
20260503222724 51 314 10.0 20.0 0.00 0.02 0.02 40 1008.6
20260503221803 51 309 9.0 23.0 0.00 0.02 0.02 40 1008.5
20260503220925 51 303 8.0 18.0 0.00 0.03 0.02 40 1008.4
20260503220003 51 307 11.0 21.0 0.00 0.03 0.02 39 1008.3
20260503215403 51 308 12.0 25.0 0.00 0.03 0.02 39 1008.2
20260503214503 51 303 10.0 25.0 0.00 0.04 0.02 40 1008.3